When you browse on this site, cookies collect data to enhance your experience and personalize the content and advertising you see.
Visit our Privacy Policy to learn more. By continuing to use the site, you agree to this use of cookies and data.
  • Em Portugal
  • Lista de países
  • Para 7 dias
  • Temperatura da água
  • Mapas de satélite
  • Mapa do tempo
  • Widgets de tempo
  • user-avatar
    Iniciar Sessão

    Previsão horária em Kobyle

    Hoje, 24 Março, Domingo

    Tempo Temperatura Precipitação Vento Pressão Humidade
    00:00 +8°C° 0 mm 1 m/s 746 mmHg 52%
    01:00 +8°C° 0 mm 1 m/s 745 mmHg 60%
    02:00 +8°C° 0 mm 1 m/s 745 mmHg 65%
    03:00 +8°C° 0 mm 1 m/s 745 mmHg 70%
    04:00 +7°C° 0 mm 2 m/s 745 mmHg 75%
    05:00 +7°C° 0.1 mm 2 m/s 746 mmHg 80%
    06:00 +7°C° 0.1 mm 3 m/s 746 mmHg 86%
    07:00 +7°C° 0 mm 3 m/s 746 mmHg 92%
    08:00 +8°C° 0 mm 3 m/s 746 mmHg 86%
    09:00 +8°C° 0 mm 3 m/s 746 mmHg 80%
    10:00 +9°C° 0 mm 3 m/s 746 mmHg 75%
    11:00 +10°C° 0 mm 3 m/s 745 mmHg 68%
    12:00 +11°C° 0 mm 3 m/s 745 mmHg 61%
    13:00 +12°C° 0 mm 3 m/s 745 mmHg 54%
    14:00 +13°C° 0 mm 2 m/s 744 mmHg 51%
    15:00 +13°C° 0 mm 2 m/s 744 mmHg 49%
    16:00 +13°C° 0 mm 2 m/s 743 mmHg 46%
    17:00 +12°C° 0 mm 1 m/s 743 mmHg 50%
    18:00 +10°C° 0 mm 1 m/s 742 mmHg 53%
    19:00 +8°C° 0 mm 0 m/s 742 mmHg 57%
    20:00 +8°C° 0 mm 0 m/s 742 mmHg 56%
    21:00 +9°C° 0 mm 1 m/s 741 mmHg 56%
    22:00 +9°C° 0 mm 1 m/s 741 mmHg 56%
    23:00 +8°C° 0.2 mm 1 m/s 741 mmHg 61%

    Amanhã, 25 Março, Segunda-feira

    Tempo Temperatura Precipitação Vento Pressão Humidade
    00:00 +7°C° 0.2 mm 0 m/s 740 mmHg 65%
    01:00 +7°C° 0.2 mm 0 m/s 740 mmHg 70%
    02:00 +7°C° 0.1 mm 0 m/s 739 mmHg 72%
    03:00 +7°C° 0.1 mm 1 m/s 738 mmHg 74%
    04:00 +7°C° 0.1 mm 1 m/s 738 mmHg 76%
    05:00 +7°C° 0.1 mm 1 m/s 738 mmHg 76%
    06:00 +7°C° 0.1 mm 1 m/s 738 mmHg 76%
    07:00 +7°C° 0.1 mm 1 m/s 737 mmHg 75%
    08:00 +7°C° 0 mm 2 m/s 737 mmHg 70%
    09:00 +8°C° 0 mm 2 m/s 737 mmHg 65%
    10:00 +9°C° 0 mm 3 m/s 737 mmHg 60%
    11:00 +9°C° 0.1 mm 3 m/s 736 mmHg 57%
    12:00 +10°C° 0.1 mm 3 m/s 736 mmHg 55%
    13:00 +11°C° 0.1 mm 3 m/s 736 mmHg 52%
    14:00 +10°C° 0.3 mm 4 m/s 735 mmHg 53%
    15:00 +9°C° 0.3 mm 5 m/s 735 mmHg 55%
    16:00 +8°C° 0.3 mm 5 m/s 735 mmHg 56%
    17:00 +7°C° 0.1 mm 5 m/s 736 mmHg 59%
    18:00 +6°C° 0.1 mm 4 m/s 736 mmHg 63%
    19:00 +5°C° 0.1 mm 3 m/s 737 mmHg 66%
    20:00 +5°C° 0.1 mm 3 m/s 737 mmHg 70%
    21:00 +4°C° 0.1 mm 4 m/s 738 mmHg 74%
    22:00 +3°C° 0.1 mm 4 m/s 738 mmHg 77%
    23:00 +3°C° 0 mm 4 m/s 739 mmHg 78%

    Depois de amanhã, 26 Março, Terça-feira

    Tempo Temperatura Precipitação Vento Pressão Humidade
    00:00 +2°C° 0 mm 5 m/s 740 mmHg 78%
    01:00 +1°C° 0 mm 5 m/s 740 mmHg 79%
    02:00 +1°C° 0 mm 5 m/s 741 mmHg 82%
    03:00 +1°C° 0 mm 5 m/s 741 mmHg 84%
    04:00 +1°C° 0 mm 4 m/s 741 mmHg 87%
    05:00 0°C° 0 mm 5 m/s 742 mmHg 86%
    06:00 0°C° 0 mm 5 m/s 742 mmHg 86%
    07:00 0°C° 0 mm 5 m/s 743 mmHg 85%
    08:00 +1°C° 0 mm 5 m/s 743 mmHg 79%
    09:00 +2°C° 0 mm 6 m/s 744 mmHg 73%
    10:00 +3°C° 0 mm 6 m/s 744 mmHg 67%
    11:00 +4°C° 0 mm 6 m/s 744 mmHg 62%
    12:00 +5°C° 0 mm 6 m/s 744 mmHg 57%
    13:00 +6°C° 0 mm 7 m/s 743 mmHg 52%
    14:00 +6°C° 0 mm 7 m/s 743 mmHg 51%
    15:00 +6°C° 0 mm 7 m/s 742 mmHg 50%
    16:00 +6°C° 0 mm 8 m/s 742 mmHg 49%
    17:00 +5°C° 0.1 mm 7 m/s 742 mmHg 54%
    18:00 +5°C° 0.1 mm 6 m/s 743 mmHg 58%
    19:00 +5°C° 0.1 mm 5 m/s 743 mmHg 63%
    20:00 +3°C° 0.1 mm 5 m/s 744 mmHg 65%
    21:00 +2°C° 0.1 mm 5 m/s 744 mmHg 67%
    22:00 +1°C° 0.1 mm 4 m/s 745 mmHg 69%
    23:00 +1°C° 0.2 mm 4 m/s 745 mmHg 69%

    27 Março, Quarta-feira

    Tempo Temperatura Precipitação Vento Pressão Humidade
    00:00 +1°C° 0.2 mm 4 m/s 745 mmHg 70%
    01:00 0°C° 0.2 mm 4 m/s 746 mmHg 70%
    02:00 0°C° 0 mm 3 m/s 746 mmHg 70%
    03:00 -1°C° 0 mm 2 m/s 746 mmHg 69%
    04:00 -2°C° 0 mm 2 m/s 746 mmHg 69%
    05:00 -2°C° 0 mm 2 m/s 747 mmHg 64%
    06:00 -1°C° 0 mm 2 m/s 747 mmHg 58%
    07:00 -1°C° 0 mm 2 m/s 748 mmHg 53%
    08:00 +1°C° 0 mm 3 m/s 748 mmHg 49%
    09:00 +2°C° 0 mm 3 m/s 749 mmHg 44%
    10:00 +4°C° 0 mm 3 m/s 749 mmHg 39%
    11:00 +4°C° 0 mm 3 m/s 749 mmHg 39%
    12:00 +5°C° 0 mm 3 m/s 749 mmHg 40%
    13:00 +7°C° 0 mm 3 m/s 748 mmHg 40%
    14:00 +7°C° 0 mm 3 m/s 748 mmHg 43%
    15:00 +7°C° 0 mm 3 m/s 748 mmHg 47%
    16:00 +7°C° 0 mm 3 m/s 748 mmHg 50%
    17:00 +6°C° 0 mm 2 m/s 748 mmHg 55%
    18:00 +6°C° 0 mm 1 m/s 748 mmHg 60%
    19:00 +4°C° 0 mm 1 m/s 749 mmHg 65%
    20:00 +4°C° 0 mm 1 m/s 749 mmHg 67%
    21:00 +4°C° 0 mm 1 m/s 749 mmHg 68%
    22:00 +2°C° 0 mm 2 m/s 749 mmHg 70%
    23:00 +2°C° 0 mm 2 m/s 749 mmHg 70%

    28 Março, Quinta-feira

    Tempo Temperatura Precipitação Vento Pressão Humidade
    00:00 +2°C° 0 mm 2 m/s 749 mmHg 70%
    01:00 +2°C° 0 mm 2 m/s 750 mmHg 70%
    02:00 +3°C° 0 mm 1 m/s 750 mmHg 72%
    03:00 +3°C° 0 mm 1 m/s 750 mmHg 73%
    04:00 +4°C° 0 mm 1 m/s 750 mmHg 74%
    05:00 +4°C° 0 mm 1 m/s 750 mmHg 75%
    06:00 +5°C° 0 mm 1 m/s 750 mmHg 75%
    07:00 +5°C° 0 mm 1 m/s 751 mmHg 76%
    08:00 +7°C° 0 mm 1 m/s 751 mmHg 71%
    09:00 +7°C° 0 mm 2 m/s 751 mmHg 67%
    10:00 +9°C° 0 mm 2 m/s 751 mmHg 63%
    11:00 +9°C° 0.1 mm 2 m/s 751 mmHg 61%
    12:00 +10°C° 0.1 mm 2 m/s 751 mmHg 59%
    13:00 +10°C° 0.1 mm 2 m/s 751 mmHg 57%
    14:00 +10°C° 0.1 mm 2 m/s 751 mmHg 57%
    15:00 +10°C° 0.1 mm 2 m/s 751 mmHg 57%
    16:00 +10°C° 0.1 mm 2 m/s 751 mmHg 57%
    17:00 +9°C° 0 mm 2 m/s 751 mmHg 64%
    18:00 +9°C° 0 mm 1 m/s 751 mmHg 70%
    19:00 +7°C° 0 mm 1 m/s 751 mmHg 77%
    20:00 +7°C° 0 mm 1 m/s 752 mmHg 79%
    21:00 +6°C° 0 mm 1 m/s 752 mmHg 82%
    22:00 +5°C° 0 mm 1 m/s 752 mmHg 85%
    23:00 +4°C° 0 mm 0 m/s 752 mmHg 85%

    29 Março, Sexta-feira

    Tempo Temperatura Precipitação Vento Pressão Humidade
    00:00 +4°C° 0 mm 0 m/s 752 mmHg 86%
    01:00 +4°C° 0 mm 0 m/s 752 mmHg 86%
    02:00 +3°C° 0 mm 0 m/s 752 mmHg 86%
    03:00 +3°C° 0 mm 0 m/s 752 mmHg 87%
    04:00 +3°C° 0 mm 0 m/s 753 mmHg 87%
    05:00 +4°C° 0 mm 0 m/s 753 mmHg 84%
    06:00 +4°C° 0 mm 0 m/s 753 mmHg 81%
    07:00 +5°C° 0 mm 0 m/s 753 mmHg 78%
    08:00 +8°C° 0 mm 1 m/s 753 mmHg 71%
    09:00 +9°C° 0 mm 1 m/s 753 mmHg 64%
    10:00 +11°C° 0 mm 1 m/s 752 mmHg 57%
    11:00 +12°C° 0 mm 2 m/s 752 mmHg 54%
    12:00 +13°C° 0 mm 2 m/s 752 mmHg 51%
    13:00 +13°C° 0 mm 2 m/s 751 mmHg 49%
    14:00 +13°C° 0 mm 2 m/s 751 mmHg 49%
    15:00 +13°C° 0 mm 2 m/s 750 mmHg 50%
    16:00 +14°C° 0 mm 2 m/s 750 mmHg 51%
    17:00 +12°C° 0 mm 1 m/s 750 mmHg 56%
    18:00 +10°C° 0 mm 1 m/s 750 mmHg 62%
    19:00 +8°C° 0 mm 0 m/s 750 mmHg 67%
    20:00 +8°C° 0 mm 0 m/s 750 mmHg 69%
    21:00 +8°C° 0 mm 1 m/s 750 mmHg 70%
    22:00 +8°C° 0 mm 1 m/s 750 mmHg 72%
    23:00 +7°C° 0 mm 1 m/s 750 mmHg 74%
    Mostrar mais